Location: Unspecified
(41.1637°N, 24.2901°E)
Time: 11:50:57
(UTC+01:00)

ISS - Pass Details

Date: 28 November 2021
Orbit: 417 x 423 km, 51.6° (Epoch: 29 November)

Event Time Altitude Azimuth Distance (km) Brightness Sun altitude
Rises 17:53:40 0° 305° (NW) 2,380 0.8 -21.7°
Reaches altitude 10° 17:56:30 10° 330° (NNW) 1,514 -0.7 -22.3°
Enters shadow 17:57:14 13° 341° (NNW) 1,370 -1.1 -22.4°
